sat.trackr.live / text

‹ back to catalog

STARLINK-31806

NORAD 59640 · 2024-082K

PAYLOAD ACTIVE UNKNOWN

§ Identity

Operator
Country
US
Launch date
2024-05-03
Launch site
AFETR
Launch vehicle
Mass (kg)
RCS (m²)

Purposes: comms

External: N2YO · Heavens-Above · Gunter

§ Orbital elements

Epoch: 2026-09-21T22:18:46.760832Z

Period
94.27 min
Inclination
43.0026°
Eccentricity
0.0001198
Mean motion
15.27571229 rev/d
Perigee alt
482.3 km
Apogee alt
483.9 km
Semi-major
6,861.2 km
B*
5.2939e-5
RAAN
111.6023°
Arg perigee
282.7499°
Mean anomaly
77.3219°
Rev number
13,482

§ Raw data

STARLINK-318061 59640U 24082K   26264.92970788  .00001195  00000+0  52939-4 0  99972 59640  43.0026 111.6023 0001198 282.7499  77.3219 15.27571229134823

JSON: /api/v1/satellites/59640 · /tle

For live sub-satellite position, see the globe view (requires WebGL).

§ Visibility from observer

Set your observer location to see the next 7 days of passes ≥ 10°. The values pass through the URL so the page stays shareable.

No JS? Fill the form by hand. The geolocation button needs JavaScript.